x

Luke Offshore Test Platform - 64 Nm South Of Dauphin Island, Al (42040) Wave Buoy

11:50pm - Wed 22nd Mar 2017 All times are CDT. -5 hours from GMT.

  • Sig Wave height 1.6ft
  • Swell Direction
  • Peak Period 3s
  • Average Period 3s
  • Wind
    11mph, 13mph gusts
  • Sea Temp 73°f
  • Air Temp 72°f
  • Sea Pressure 1021.5mb
  • Luke Offshore Test Platform - 64 Nm South Of Dauphin Island, Al
  • Luke Offshore Test Platform - 64 Nm South Of Dauphin Island, Al

More Historic Weather Station data

Upgrade to MSW Pro to gain access to the past 30 days of data for over 8000 Wavebouys and Weather Stations around the globe.

Join Pro

Comparision Forecast

View Surf forecast
   
Wed 03/22 11:50pm 1.6ft 3s 3s 11 13 mph 1021.5mb 73f 72f
11:40pm 1.6ft  -  3s 13
mph
1021.5mb 73f 72f
11:30pm  -   -   -  13
mph
1021.5mb 73f 72f
11:20pm  -   -   -  11 13 mph 1021.5mb 73f 72f
11:10pm  -   -   -  11 13 mph 1021.4mb 73f 72f
11:00pm  -   -   -  11 13 mph 1021.4mb 73f 72f
10:50pm 1.3ft 3s 3s 11 13 mph 1021.4mb 73f 73f
10:40pm  -   -   -  9 11 mph 1021.4mb 73f 73f
10:30pm  -   -   -  11
mph
1021.4mb 73f 73f
10:20pm  -   -   -  11 13 mph 1021.4mb 73f 73f
10:10pm  -   -   -  11 13 mph 1021.1mb 73f 73f
10:00pm  -   -   -  11 13 mph 1021.1mb 73f 73f
9:50pm 1.6ft 3s 3s 11
mph
1021.1mb - 73f
9:40pm 1.6ft  -  3s 9 11 mph 1021.1mb 73f 72f
9:30pm  -   -   -  11 13 mph 1020.9mb 73f 72f
9:20pm  -   -   -  11 13 mph 1020.9mb 73f 72f
9:10pm  -   -   -  11 13 mph 1020.8mb 73f 72f
9:00pm  -   -   -  11 13 mph 1020.6mb 73f 72f
8:50pm 1.3ft 3s 3s 11 13 mph 1020.6mb 73f 72f
8:40pm  -   -   -  11 13 mph 1020.5mb 73f 72f
8:30pm  -   -   -  11 13 mph 1020.4mb 73f -
8:20pm  -   -   -  11 13 mph 1020.3mb 73f 72f
8:10pm  -   -   -  11 13 mph 1020.1mb 73f 72f
8:00pm  -   -   -  11 13 mph 1020mb 73f 71f
7:50pm 1.3ft 3s 3s 13 16 mph 1020.3mb 73f 71f
7:40pm 1.3ft  -  3s 13 16 mph 1020.1mb 73f 71f
7:30pm  -   -   -  13 16 mph 1020mb 73f 71f
7:20pm  -   -   -  13 16 mph 1020mb 73f 71f
7:10pm  -   -   -  13
mph
1020mb 73f 71f
7:00pm  -   -   -  11 13 mph 1020mb 73f 71f
6:50pm 1.3ft 4s 3s 11 13 mph 1019.8mb 73f 71f
6:40pm 1.3ft  -  3s 11 13 mph 1019.8mb 73f 71f
6:30pm  -   -   -  11 13 mph 1019.8mb 73f 70f
6:20pm  -   -   -  11 13 mph 1019.6mb 73f 70f
6:10pm  -   -   -  11 13 mph 1019.8mb 73f 70f
6:00pm  -   -   -  11 13 mph 1019.8mb 73f 70f
5:50pm 1.3ft 4s 3s 11 13 mph 1019.6mb 73f 70f
5:40pm 1.3ft  -  3s 11 13 mph 1019.6mb 73f 70f
5:30pm  -   -   -  11 13 mph 1019.6mb 73f 70f
5:20pm  -   -   -  11 13 mph 1019.6mb 73f 70f
5:10pm  -   -   -  11 13 mph 1019.6mb 73f 70f
5:00pm  -   -   -  11 13 mph 1019.5mb 73f 70f
4:50pm 1.6ft 4s 3s 11 13 mph 1019.6mb 73f 70f
4:40pm 1.6ft  -  3s 11 13 mph 1019.5mb 73f 70f
4:30pm  -   -   -  11
mph
1019.5mb 73f 70f
4:20pm  -   -   -  9 11 mph 1019.5mb 73f 70f
4:10pm  -   -   -  11
mph
1019.6mb 73f 70f
4:00pm  -   -   -  11 13 mph 1019.6mb 73f 69f
3:50pm 1.6ft 4s 3s 11 13 mph 1019.8mb 73f 69f
3:40pm  -   -   -  11 13 mph 1020mb 73f 69f
3:30pm  -   -   -  11 13 mph 1020mb 73f 69f
3:20pm  -   -   -  11 13 mph 1020mb 73f 69f
3:10pm  -   -   -  11 13 mph 1019.9mb 73f 69f
3:00pm  -   -   -  11 13 mph 1020mb 73f 69f
2:50pm 1.6ft 5s 4s 9 13 mph 1020mb 73f 69f
2:40pm 1.6ft  -  4s 9 13 mph 1020.3mb 73f 69f
2:30pm  -   -   -  11 13 mph 1020.4mb 73f 69f
2:20pm  -   -   -  11 13 mph 1020.5mb 73f 69f
2:10pm  -   -   -  11 13 mph 1020.5mb 73f 69f
2:00pm  -   -   -  11 13 mph 1020.6mb 73f 69f
1:50pm 2ft 5s 4s 11 13 mph 1020.6mb 73f 69f
1:40pm 2ft  -  4s 11 13 mph 1020.8mb 73f 69f
1:30pm  -   -   -  11 16 mph 1020.9mb 73f 69f
1:20pm  -   -   -  11 13 mph 1021mb 73f 69f
1:10pm  -   -   -  11 13 mph 1021mb 73f 69f
1:00pm  -   -   -  11 13 mph 1021.1mb 73f 68f
12:50pm 2.5ft 4s 4s 11 13 mph 1021.3mb 73f 68f
12:40pm  -   -   -  9 11 mph 1021.4mb 73f 68f
12:30pm  -   -   -  9 11 mph 1021.5mb 73f 68f
12:20pm  -   -   -  9
mph
1021.5mb 73f 68f
12:10pm  -   -   -  9 11 mph 1021.6mb 73f 68f
12:00pm  -   -   -  9 11 mph 1021.8mb 73f 68f
11:50am 2.5ft 4s 4s 9 13 mph 1022mb 73f 68f
11:40am  -   -   -  11 16 mph 1021.9mb 73f 68f
11:30am  -   -   -  13 18 mph 1022mb 73f 69f
11:20am  -   -   -  13 18 mph 1022mb 73f 69f
11:10am  -   -   -  16 18 mph 1022mb 73f 69f
11:00am  -   -   -  16 18 mph 1022mb 73f 69f
10:50am 3ft 4s 4s 16 18 mph 1022mb 73f 69f
10:40am 3ft  -  4s 18 20 mph 1022mb 73f 69f
10:30am  -   -   -  18 20 mph 1021.9mb 73f 69f
10:20am  -   -   -  16 20 mph 1021.9mb 73f 69f
10:10am  -   -   -  16 20 mph 1021.6mb 73f 69f
10:00am  -   -   -  16 20 mph 1021.6mb 73f 69f
9:50am 3.5ft 4s 4s 16 20 mph 1021.5mb 73f 69f
9:40am  -   -   -  16 20 mph 1021.4mb 73f 69f
9:30am  -   -   -  16 20 mph 1021.4mb 73f 69f
9:20am  -   -   -  16 20 mph 1021.4mb 73f 69f
9:10am  -   -   -  18 20 mph 1021.1mb 73f 69f
9:00am  -   -   -  18 20 mph 1021.1mb 73f 69f
8:50am 3ft 4s 3s 18 22 mph 1021mb 73f 69f
8:40am 3ft  -  3s 18 20 mph 1021mb 73f 69f
8:30am  -   -   -  18 22 mph 1020.8mb 73f 69f
8:20am  -   -   -  18 22 mph 1020.8mb 73f 69f
8:10am  -   -   -  20 25 mph 1020.5mb 73f 69f
8:00am  -   -   -  20 22 mph 1020.5mb 73f 69f
7:50am 3ft 4s 3s 18 22 mph 1020.4mb 73f 69f
7:40am  -   -   -  18 22 mph 1020.3mb - 70f
7:30am  -   -   -  18 22 mph 1020mb 73f 70f
7:20am  -   -   -  18 22 mph 1019.9mb 73f 70f
7:10am  -   -   -  18 22 mph 1019.8mb 73f 70f
7:00am  -   -   -  20 25 mph 1019.6mb 73f 70f
6:50am 3ft 4s 3s 20 22 mph 1019.6mb 73f 70f
6:40am 3ft  -  3s 18 22 mph 1019.6mb 73f 70f
6:30am  -   -   -  18 22 mph 1019.6mb 73f 70f
6:20am  -   -   -  18 22 mph 1019.5mb 73f 70f
6:10am  -   -   -  20 25 mph 1019.5mb 73f 70f
6:00am  -   -   -  20 22 mph 1019.4mb 73f 70f
5:50am 2.5ft 4s 3s 20 22 mph 1019.4mb 73f 70f
5:40am 2.5ft  -  3s 18 22 mph 1019.1mb 73f 70f
5:30am  -   -   -  18 22 mph 1019.1mb 73f 70f
5:20am  -   -   -  18 22 mph 1019.3mb 73f 70f
5:10am  -   -   -  18 22 mph 1019.1mb 73f 70f
5:00am  -   -   -  18 20 mph 1019.1mb 73f 70f
4:50am 2.5ft 4s 3s 18 20 mph 1019.1mb 73f 70f
4:40am  -   -   -  16 20 mph 1019.1mb 73f 70f
4:30am  -   -   -  16 20 mph 1019.1mb 73f 70f
4:20am  -   -   -  16 20 mph 1019mb 73f 70f
4:10am  -   -   -  16 20 mph 1019mb 73f 70f
4:00am  -   -   -  16 20 mph 1019mb 73f 70f
3:50am 2.5ft 3s 3s 16 18 mph 1019mb 73f 70f
3:40am  -   -   -  16 20 mph 1019.1mb 73f 70f
3:30am  -   -   -  16 20 mph 1019.1mb 73f 70f
3:20am  -   -   -  16 20 mph 1019.1mb 73f 70f
3:10am  -   -   -  18 20 mph 1019.4mb 73f 70f
3:00am  -   -   -  18 20 mph 1019.5mb 73f 70f
2:50am 2.5ft 4s 3s 18 20 mph 1019.5mb 73f 70f
2:40am 2.5ft  -  3s 18 20 mph 1019.5mb 73f 70f
2:30am  -   -   -  18 20 mph 1019.6mb 73f 70f
2:20am  -   -   -  18 20 mph 1019.8mb 73f 70f
2:10am  -   -   -  16 20 mph 1020mb 73f 70f
2:00am  -   -   -  18 20 mph 1020mb 73f 70f
1:50am 3ft 4s 3s 18 20 mph 1020mb 73f 70f
1:40am 3ft  -  3s 18 22 mph 1020mb 73f 70f
1:30am  -   -   -  18 22 mph 1020mb 73f 70f
1:20am  -   -   -  18 22 mph 1020mb 73f 70f
1:10am  -   -   -  18 22 mph 1020mb 73f 71f
1:00am  -   -   -  18 22 mph 1020mb 73f 71f
12:50am 3ft 4s 3s 18 22 mph 1020mb 73f 71f
12:40am  -   -   -  18 22 mph 1020mb 73f 71f
12:30am  -   -   -  18 22 mph 1019.9mb 73f 71f
12:20am  -   -   -  18 22 mph 1020mb 73f 71f
12:10am  -   -   -  18 22 mph 1020mb 73f 71f
12:00am  -   -   -  18 22 mph 1020mb 73f 71f
Tue 03/21 11:50pm 3ft 4s 4s 18 22 mph 1019.8mb 73f 71f
11:40pm 3ft  -  4s 18 22 mph 1019.9mb 73f 71f
11:30pm  -   -   -  18 22 mph 1019.9mb 73f 71f
11:20pm  -   -   -  18 22 mph 1019.9mb 73f 71f
11:10pm  -   -   -  18 22 mph 1019.9mb 73f 71f
11:00pm  -   -   -  18 22 mph 1019.9mb 74f 71f
10:50pm 3ft 4s 4s 18 22 mph 1019.9mb 74f 71f
10:40pm 3ft  -  4s 18 22 mph 1019.9mb 74f 71f
10:30pm  -   -   -  18 22 mph 1019.9mb 74f 71f
10:20pm  -   -   -  18 22 mph 1019.9mb 74f 71f
10:10pm  -   -   -  18 20 mph 1019.9mb 74f 71f
10:00pm  -   -   -  18 20 mph 1019.8mb 74f 71f
9:50pm 3ft 4s 4s 18 20 mph 1019.8mb 74f 71f
9:40pm 3ft  -  4s 18 20 mph 1019.6mb 74f 71f
9:30pm  -   -   -  18 20 mph 1019.6mb 74f 71f
9:20pm  -   -   -  18 20 mph 1019.6mb 74f 71f
9:10pm  -   -   -  18 20 mph 1019.6mb 74f 71f
9:00pm  -   -   -  18 20 mph 1019.6mb 74f 71f
8:50pm 2.5ft 4s 4s 16 20 mph 1019.5mb 74f 71f
8:40pm  -   -   -  18 20 mph 1019.4mb 74f 71f
8:30pm  -   -   -  18 20 mph 1019.3mb - 71f
8:20pm  -   -   -  18 20 mph 1019.3mb 74f 71f
8:10pm  -   -   -  16 20 mph 1019.1mb 74f 71f
8:00pm  -   -   -  16 20 mph 1019.1mb 74f 71f
7:50pm 2.5ft 4s 3s 16 20 mph 1019mb 74f 71f
7:40pm 2.5ft  -  3s 16 18 mph 1019mb 74f 71f
7:30pm  -   -   -  16 20 mph 1019mb 74f 71f
7:20pm  -   -   -  16 20 mph 1019mb 74f 71f
7:10pm  -   -   -  16 18 mph 1019mb 74f 71f
7:00pm  -   -   -  16 18 mph 1019mb 74f 72f
6:50pm 2ft 4s 3s 13 18 mph 1019mb 74f 72f
6:40pm 2ft  -  3s 13 16 mph 1019mb 74f 72f
6:30pm  -   -   -  13 16 mph 1019mb 74f 72f
6:20pm  -   -   -  13 16 mph 1019.1mb 74f 72f
6:10pm  -   -   -  13 16 mph 1019.1mb 74f 72f
6:00pm  -   -   -  13 16 mph 1019.1mb 74f 72f
5:50pm 1.3ft 4s 3s 13 16 mph 1019.1mb 74f 72f
5:40pm 1.3ft  -  3s 13 16 mph 1019.1mb 74f 72f
5:30pm  -   -   -  13 16 mph 1019.1mb 74f 72f
5:20pm  -   -   -  13 16 mph 1019.3mb 74f 72f
5:10pm  -   -   -  13 16 mph 1019.4mb 74f 72f
5:00pm  -   -   -  13 16 mph 1019.5mb 74f 72f
4:50pm 1.3ft 3s 3s 13 16 mph 1019.5mb 74f 72f
4:40pm 1.3ft  -  3s 11 13 mph 1019.6mb 74f 72f
4:30pm  -   -   -  11 16 mph 1019.8mb 74f 72f
4:20pm  -   -   -  11 16 mph 1019.9mb 74f 72f
4:10pm  -   -   -  9 11 mph 1020mb 74f 72f
4:00pm  -   -   -  11 13 mph 1020mb 74f 72f
3:50pm 1.3ft 3s 3s 11 13 mph 1020.3mb 74f 72f
3:40pm  -   -   -  11 13 mph 1020.3mb 74f 72f
3:30pm  -   -   -  11 13 mph 1020.5mb - 72f
3:20pm  -   -   -  11 13 mph 1020.4mb 74f 72f
3:10pm  -   -   -  11 13 mph 1020.5mb 74f 71f
3:00pm  -   -   -  11 13 mph 1020.6mb 74f 71f
2:50pm 1.3ft 3s 3s 11 16 mph 1020.9mb 74f 71f
2:40pm 1.3ft  -  3s 13 16 mph 1021mb 74f 71f
2:30pm  -   -   -  13 16 mph 1021.3mb - 71f
2:20pm  -   -   -  11 16 mph 1021.1mb 74f 71f
2:10pm  -   -   -  13 16 mph 1021.3mb 74f 71f
2:00pm  -   -   -  11 16 mph 1021.4mb 74f 71f
1:50pm 1.3ft 3s 3s 13 16 mph 1021.5mb 74f 71f
1:40pm 1.3ft  -  3s 13 16 mph 1021.6mb 74f 71f
1:30pm  -   -   -  13 18 mph 1021.9mb 73f 71f
1:20pm  -   -   -  13 16 mph 1022mb 74f 71f
1:10pm  -   -   -  13 18 mph 1022.3mb 74f 71f
1:00pm  -   -   -  13 16 mph 1022.5mb 73f 71f
12:50pm 1.6ft 3s 3s 13 16 mph 1022.6mb 73f 71f
12:40pm  -   -   -  13 18 mph 1022.8mb 73f 71f
12:30pm  -   -   -  16 18 mph 1022.8mb 73f 71f
12:20pm  -   -   -  16 18 mph 1022.8mb 73f 71f
12:10pm  -   -   -  13 18 mph 1022.9mb 73f 71f
12:00pm  -   -   -  16 18 mph 1023mb 73f 71f
11:50am 1.3ft 3s 3s 13 18 mph 1023mb 73f 71f
11:40am 1.3ft  -  3s 13 16 mph 1023mb 73f 70f
11:30am  -   -   -  16 18 mph 1023mb 73f 70f
11:20am  -   -   -  13 18 mph 1023mb 73f 70f
11:10am  -   -   -  13 16 mph 1023mb 73f 70f
11:00am  -   -   -  13 16 mph 1023mb 73f 70f
10:50am 1.6ft 3s 3s 13 18 mph 1023mb 73f 70f
10:40am  -   -   -  13 18 mph 1023mb 73f 70f
10:30am  -   -   -  16 18 mph 1023mb 73f 70f
10:20am  -   -   -  16 18 mph 1023mb 73f 70f
10:10am  -   -   -  13 16 mph 1022.9mb 73f 70f
10:00am  -   -   -  13 18 mph 1022.8mb 73f 70f
9:50am 1.6ft 3s 3s 13 18 mph 1022.8mb 73f 70f
9:40am  -   -   -  16 18 mph 1022.8mb 73f 70f
9:30am  -   -   -  16 18 mph 1022.5mb - 70f
9:20am  -   -   -  16 18 mph 1022.5mb 72f 70f
9:10am  -   -   -  13 18 mph 1022.4mb 72f 70f
9:00am  -   -   -  13 16 mph 1022.4mb 72f 70f
8:50am 1.6ft 3s 3s 13 18 mph 1022.4mb 72f 70f
8:40am  -   -   -  13 18 mph 1022.4mb 72f 70f
8:30am  -   -   -  13 18 mph 1022.3mb 72f 70f
8:20am  -   -   -  13 18 mph 1022.3mb 72f 70f
8:10am  -   -   -  13 18 mph 1022.3mb 72f 70f
8:00am  -   -   -  13 18 mph 1022mb 72f 70f
7:50am 1.6ft 3s 3s 13 18 mph 1022mb 72f 70f
7:40am  -   -   -  16 18 mph 1021.9mb 72f 70f
7:30am  -   -   -  16 18 mph 1021.9mb 72f 70f
7:20am  -   -   -  16 18 mph 1021.8mb 72f 70f
7:10am  -   -   -  16 18 mph 1021.5mb 72f 70f
7:00am  -   -   -  16 18 mph 1021.5mb 72f 70f
6:50am 1.6ft 3s 3s 16 18 mph 1021.5mb 72f 70f
6:40am  -   -   -  13 18 mph 1021.5mb 72f 70f
6:30am  -   -   -  16 18 mph 1021.4mb 72f 70f
6:20am  -   -   -  16 18 mph 1021.4mb 72f 70f
6:10am  -   -   -  16 18 mph 1021.1mb 72f 70f
6:00am  -   -   -  16 18 mph 1021mb 72f 70f
5:50am 1.6ft 3s 3s 16 18 mph 1021mb 72f 70f
5:40am 1.6ft  -  3s 16 18 mph 1020.9mb 72f 70f
5:30am  -   -   -  16 18 mph 1020.8mb 72f 70f
5:20am  -   -   -  16 18 mph 1020.8mb 72f 70f
5:10am  -   -   -  16 18 mph 1020.6mb 72f 70f
5:00am  -   -   -  16 18 mph 1020.6mb 72f 70f
4:50am 2ft 3s 3s 16 18 mph 1020.5mb 72f 70f
4:40am 2ft  -  3s 16 18 mph 1020.6mb 72f 70f
4:30am  -   -   -  16 18 mph 1020.5mb 72f 70f
4:20am  -   -   -  16 18 mph 1020.5mb 72f 70f
4:10am  -   -   -  16 18 mph 1020.6mb 72f 70f
4:00am  -   -   -  16 18 mph 1020.6mb 72f 70f
3:50am 1.6ft 3s 3s 16 18 mph 1020.8mb 72f 70f
3:40am 1.6ft  -  3s 13 18 mph 1020.9mb - 70f
3:30am  -   -   -  13 18 mph 1020.9mb 72f 70f
3:20am  -   -   -  16 18 mph 1020.9mb 72f 70f
3:10am  -   -   -  16 18 mph 1020.9mb 72f 70f
3:00am  -   -   -  13 16 mph 1021mb 72f 70f
2:50am 1.6ft 3s 3s 13 16 mph 1021mb 72f 70f
2:40am 1.6ft  -  3s 13 16 mph 1021.1mb 72f 70f
2:30am  -   -   -  13 16 mph 1021.3mb 72f 70f
2:20am  -   -   -  13 18 mph 1021.4mb 72f 70f
2:10am  -   -   -  13 16 mph 1021.5mb 72f 70f
2:00am  -   -   -  13 18 mph 1021.4mb 72f 70f
1:50am 1.6ft 3s 3s 13 18 mph 1021.4mb 72f 70f
1:40am 1.6ft  -  3s 13 18 mph 1021.4mb 72f 70f
1:30am  -   -   -  13 16 mph 1021.4mb 72f 70f
1:20am  -   -   -  16 18 mph 1021.4mb 72f 70f
1:10am  -   -   -  16 18 mph 1021.4mb 72f 70f
1:00am  -   -   -  16 18 mph 1021.5mb - 71f
12:50am 1.3ft 3s 3s 16 18 mph 1021.5mb 72f 71f
12:40am 1.3ft  -  3s 16 18 mph 1021.5mb 72f 71f
12:30am  -   -   -  13 18 mph 1021.6mb 72f 71f
12:20am  -   -   -  13 16 mph 1021.6mb 72f 71f
12:10am  -   -   -  13 18 mph 1021.6mb 72f 71f
12:00am  -   -   -  13 16 mph 1021.6mb 72f 71f
Mon 03/20 11:50pm 1ft 2s 3s 13 16 mph 1021.8mb 72f 71f
11:40pm 1ft  -  3s 13 16 mph 1022mb 72f 71f
11:30pm  -   -   -  13 16 mph 1022mb 72f 71f
11:20pm  -   -   -  13 16 mph 1022mb 72f 71f
11:10pm  -   -   -  13 16 mph 1022mb 72f 71f
11:00pm  -   -   -  13 16 mph 1022mb 72f 71f
10:50pm 0.7ft  -  3s 13 16 mph 1022mb - 71f
10:40pm  -   -   -  13
mph
1022mb 72f 71f
10:30pm  -   -   -  11 13 mph 1022mb 72f 71f
10:20pm  -   -   -  11 13 mph 1022mb 72f 71f
10:10pm  -   -   -  11 13 mph 1022mb 72f 71f
10:00pm  -   -   -  11 13 mph 1022mb 72f 71f
9:50pm 0.7ft  -  4s 11 13 mph 1022mb 72f 71f
9:40pm  -   -   -  11 13 mph 1022mb 72f 71f
9:30pm  -   -   -  11 13 mph 1022mb 72f 71f
9:20pm  -   -   -  11 13 mph 1021.9mb 72f 71f
9:10pm  -   -   -  11 13 mph 1022mb 72f 71f
9:00pm  -   -   -  11 13 mph 1021.9mb 72f 71f
8:50pm 0.3ft  -  4s 11 13 mph 1021.8mb 72f 71f
8:40pm  -   -   -  11 13 mph 1021.9mb 72f 71f
8:30pm  -   -   -  11
mph
1021.8mb 72f 71f
8:20pm  -   -   -  9 11 mph 1021.8mb 72f 71f
8:10pm  -   -   -  9 11 mph 1021.6mb 72f 71f
8:00pm  -   -   -  9 11 mph 1021.6mb 72f 71f
7:50pm 0.7ft  -  4s 9 11 mph 1021.6mb 72f 71f
7:40pm  -   -   -  9 11 mph 1021.6mb 72f 71f
7:30pm  -   -   -  9 11 mph 1021.5mb 72f 71f
7:20pm  -   -   -  9 11 mph 1021.6mb 72f 71f
7:10pm  -   -   -  9 11 mph 1021.6mb 72f 71f
7:00pm  -   -   -  9
mph
1021.8mb 72f 71f
6:50pm 0.7ft  -  4s 9 11 mph 1021.8mb 72f 71f
6:40pm 0.7ft  -  4s 7 9 mph 1021.8mb 72f 71f
6:30pm  -   -   -  7 9 mph 1021.8mb 72f 71f
6:20pm  -   -   -  7 9 mph 1021.8mb 72f 71f
6:10pm  -   -   -  7 9 mph 1021.8mb 72f 71f
6:00pm  -   -   -  7 9 mph 1021.8mb - 71f
5:50pm 0.7ft  -  4s 7 9 mph 1022mb 72f 71f
5:40pm 0.7ft  -  4s 7
mph
1021.9mb 72f 71f
5:30pm  -   -   -  7
mph
1022mb 72f 71f
5:20pm  -   -   -  7
mph
1022mb 72f 71f
5:10pm  -   -   -  7
mph
1022mb 72f 71f
5:00pm  -   -   -  4 7 mph 1022.1mb - 71f
4:50pm 0.7ft  -  4s 4 7 mph 1022.3mb 72f 71f
4:40pm 0.7ft  -  4s 4 7 mph 1022.4mb 72f 71f
4:30pm  -   -   -  4 7 mph 1022.5mb 72f 71f
4:20pm  -   -   -  2 4 mph 1022.5mb 72f 71f
4:10pm  -   -   -  4
mph
1022.5mb 71f 71f
4:00pm  -   -   -  4
mph
1022.5mb 71f 71f
3:50pm 0.7ft  -  4s 2 4 mph 1022.8mb 71f 71f
3:40pm 0.7ft  -  4s 2 4 mph 1022.8mb 71f 71f
3:30pm  -   -   -  2 4 mph 1022.9mb 71f 71f
3:20pm  -   -   -  2 4 mph 1022.9mb 71f 71f
3:10pm  -   -   -  4
mph
1023mb 71f 70f
3:00pm  -   -   -  4 7 mph 1023.1mb 71f 70f
2:50pm 0.7ft  -  4s 4 7 mph 1023.3mb 71f 70f
2:40pm 0.7ft  -  4s 4 7 mph 1023.4mb 71f 70f
2:30pm  -   -   -  4 7 mph 1023.5mb 71f 70f
2:20pm  -   -   -  4 7 mph 1023.6mb 71f 70f
2:10pm  -   -   -  4 7 mph 1023.6mb 71f 70f
2:00pm  -   -   -  7
mph
1023.8mb 71f 70f
1:50pm 0.7ft  -  4s 7
mph
1023.9mb 72f 70f
1:40pm 0.7ft  -  4s 7 9 mph 1024mb 71f 70f
1:30pm  -   -   -  7 9 mph 1024.2mb 71f 70f
1:20pm  -   -   -  7 9 mph 1024.2mb 71f 70f
1:10pm  -   -   -  7
mph
1024.3mb 71f 70f
1:00pm  -   -   -  7
mph
1024.3mb 71f 70f
12:50pm 0.7ft  -  4s 7 9 mph 1024.3mb 71f 70f
12:40pm  -   -   -  7
mph
1024.3mb 71f 70f
12:30pm  -   -   -  7 9 mph 1024.5mb 71f 70f
12:20pm  -   -   -  7 9 mph 1024.5mb 71f 70f
12:10pm  -   -   -  7 9 mph 1024.5mb 71f 70f
12:00pm  -   -   -  7 9 mph 1024.7mb 71f 70f
11:50am 1ft 7s 3s 7 9 mph 1024.7mb 71f 69f
11:40am  -   -   -  7 9 mph 1024.7mb 71f 69f
11:30am  -   -   -  7 9 mph 1024.7mb 71f 69f
11:20am  -   -   -  9
mph
1024.7mb 71f 69f
11:10am  -   -   -  7 9 mph 1024.7mb 71f 69f
11:00am  -   -   -  9 11 mph 1024.7mb 72f 69f
10:50am 1ft 8s 3s 9 11 mph 1024.7mb 72f 69f
10:40am 1ft  -  3s 11
mph
1024.5mb 72f 69f
10:30am  -   -   -  11 13 mph 1024.5mb 72f 69f
10:20am  -   -   -  11 13 mph 1024.5mb 72f 69f
10:10am  -   -   -  11 13 mph 1024.5mb 72f 69f
10:00am  -   -   -  11 13 mph 1024.3mb 72f 69f
9:50am 1ft 8s 3s 11 13 mph 1024.3mb 72f 69f
9:40am 1ft  -  3s 11 13 mph 1024.3mb 72f 69f
9:30am  -   -   -  11 13 mph 1024.3mb 72f 69f
9:20am  -   -   -  11
mph
1024.2mb 72f 69f
9:10am  -   -   -  11
mph
1024.2mb 72f 69f
9:00am  -   -   -  11
mph
1024mb 72f 69f
8:50am 1ft 8s 3s 11
mph
1024mb 72f 69f
8:40am 1ft  -  3s 11
mph
1024mb 72f 68f
8:30am  -   -   -  9 11 mph 1023.9mb 72f 68f
8:20am  -   -   -  11 13 mph 1023.8mb 72f 68f
8:10am  -   -   -  11 13 mph 1023.6mb 72f 68f
8:00am  -   -   -  11
mph
1023.6mb 72f 68f
7:50am 1ft 8s 3s 11 13 mph 1023.6mb 71f 69f
7:40am  -   -   -  11 13 mph 1023.5mb 72f 69f
7:30am  -   -   -  11 13 mph 1023.5mb - 69f
7:20am  -   -   -  11 13 mph 1023.3mb 71f 69f
7:10am  -   -   -  11 13 mph 1023.3mb 72f 69f
7:00am  -   -   -  11 13 mph 1023mb 72f 69f
6:50am 1ft 8s 3s 11 13 mph 1023mb 72f 70f
6:40am 1ft  -  3s 11 13 mph 1022.9mb 72f 70f
6:30am  -   -   -  11 13 mph 1022.8mb 71f 70f
6:20am  -   -   -  11 13 mph 1022.6mb 72f 70f
6:10am  -   -   -  11 13 mph 1022.5mb 71f 70f
6:00am  -   -   -  11 13 mph 1022.5mb 71f 70f
5:50am 1ft 8s 3s 11 16 mph 1022.5mb 71f 70f
5:40am 1ft  -  3s 11 13 mph 1022.4mb 72f 70f
5:30am  -   -   -  13
mph
1022.4mb 71f 70f
5:20am  -   -   -  13
mph
1022.3mb 72f 70f
5:10am  -   -   -  11 13 mph 1022.3mb 72f 70f
5:00am  -   -   -  11 13 mph 1022.3mb 72f 70f
4:50am 1.3ft 8s 3s 11 13 mph 1022.3mb 72f 70f
4:40am 1.3ft  -  3s 11 13 mph 1022.3mb 72f 70f
4:30am  -   -   -  11 13 mph 1022.4mb 72f 70f
4:20am  -   -   -  11 13 mph 1022.4mb 72f 70f
4:10am  -   -   -  11 13 mph 1022.4mb 72f 70f
4:00am  -   -   -  11 13 mph 1022.5mb 72f 70f
3:50am 1.3ft 8s 3s 11 13 mph 1022.5mb 72f 71f
3:40am 1.3ft  -  3s 11 13 mph 1022.6mb 72f 71f
3:30am  -   -   -  11 13 mph 1022.6mb 72f 71f
3:20am  -   -   -  11 13 mph 1022.8mb 72f 71f
3:10am  -   -   -  13
mph
1022.8mb 72f 71f
3:00am  -   -   -  13
mph
1023mb 72f 71f
2:50am 1.3ft 8s 3s 11 13 mph 1023mb 72f 71f
2:40am  -   -   -  11 13 mph 1023mb 72f 71f
2:30am  -   -   -  11 13 mph 1023mb 72f 71f
2:20am  -   -   -  11 13 mph 1023.3mb 72f 71f
2:10am  -   -   -  11 13 mph 1023.4mb 72f 71f
2:00am  -   -   -  11 13 mph 1023.4mb 72f 71f
1:50am 1.3ft 8s 3s 11 13 mph 1023.5mb 72f 71f
1:40am  -   -   -  11 13 mph 1023.5mb 72f 71f
1:30am  -   -   -  11 13 mph 1023.6mb 72f 71f
1:20am  -   -   -  11 13 mph 1023.6mb 72f 71f
1:10am  -   -   -  11 13 mph 1023.6mb 72f 71f
1:00am  -   -   -  11 13 mph 1023.6mb 72f 71f
12:50am 1.3ft 7s 4s 11 13 mph 1023.6mb 72f 71f
12:40am  -   -   -  11 13 mph 1023.6mb 72f 71f
12:30am  -   -   -  11 13 mph 1023.8mb 72f 71f
12:20am  -   -   -  11 13 mph 1023.9mb 72f 71f
12:10am  -   -   -  11 13 mph 1024mb 72f 71f
12:00am  -   -   -  11 13 mph 1024mb 72f 71f
Sun 03/19 11:50pm 1.3ft 8s 4s 11 13 mph 1024.2mb 72f 71f
11:40pm  -   -   -  11
mph
1024.3mb 72f 71f
11:30pm  -   -   -  9 11 mph 1024.3mb 72f 71f
11:20pm  -   -   -  9 11 mph 1024.5mb 72f 71f
11:10pm  -   -   -  9 11 mph 1024.5mb 72f 71f
11:00pm  -   -   -  9 11 mph 1024.5mb 72f 71f
10:50pm 1.3ft 8s 4s 9 11 mph 1024.7mb 72f 71f
10:40pm 1.3ft  -  4s 9 11 mph 1024.7mb 72f 71f
10:30pm  -   -   -  9 11 mph 1024.7mb 71f 71f
10:20pm  -   -   -  9 11 mph 1024.5mb 71f 71f
10:10pm  -   -   -  9
mph
1024.5mb 71f 71f
10:00pm  -   -   -  9 11 mph 1024.7mb 71f 71f
9:50pm 1.3ft 8s 4s 9 11 mph 1024.7mb 71f 71f
9:40pm  -   -   -  9 11 mph 1024.5mb 71f 71f
9:30pm  -   -   -  9 11 mph 1024.5mb 71f 71f
9:20pm  -   -   -  9
mph
1024.5mb 71f 71f
9:10pm  -   -   -  9
mph
1024.3mb 71f 71f
9:00pm  -   -   -  9 11 mph 1024.2mb 71f 71f
8:50pm 1.3ft 4s 4s 9
mph
1024.2mb 71f 71f
8:40pm  -   -   -  9 11 mph 1024mb 71f 71f
8:30pm  -   -   -  9 11 mph 1024mb 71f 71f
8:20pm  -   -   -  9 11 mph 1024mb 71f 71f
8:10pm  -   -   -  9 11 mph 1023.9mb 71f 71f
8:00pm  -   -   -  9 11 mph 1023.8mb 71f 71f
7:50pm 1.3ft 8s 4s 9 11 mph 1023.8mb 71f 71f
7:40pm 1.3ft  -  4s 9 11 mph 1023.8mb 71f 70f
7:30pm  -   -   -  9 11 mph 1023.6mb 71f 70f
7:20pm  -   -   -  9 11 mph 1023.6mb 71f 70f
7:10pm  -   -   -  9
mph
1023.6mb 71f 70f
7:00pm  -   -   -  9
mph
1023.6mb 71f 70f
6:50pm 1.3ft 8s 4s 7 9 mph 1023.8mb 71f 70f
6:40pm 1.3ft  -  4s 7 9 mph 1023.8mb 71f 71f
6:30pm  -   -   -  7 9 mph 1023.6mb 70f 71f
6:20pm  -   -   -  7
mph
1023.8mb 70f 71f
6:10pm  -   -   -  7
mph
1023.8mb 70f 71f
6:00pm  -   -   -  4 7 mph 1023.6mb 70f 71f
5:50pm 1.3ft 7s 4s 4 7 mph 1023.8mb 70f 71f
5:40pm  -   -   -  4 7 mph 1023.6mb 70f 71f
5:30pm  -   -   -  4 7 mph 1023.6mb 70f 70f
5:20pm  -   -   -  4 7 mph 1023.5mb 69f 70f
5:10pm  -   -   -  4 7 mph 1023.5mb 70f 70f
5:00pm  -   -   -  4 7 mph 1023.5mb 70f 70f
4:50pm 1.3ft 4s 4s 4 7 mph 1023.5mb 69f 70f
4:40pm  -   -   -  4 7 mph 1023.5mb 70f 70f
4:30pm  -   -   -  4 7 mph 1023.6mb 70f 70f
4:20pm  -   -   -  4
mph
1023.6mb 70f 70f
4:10pm  -   -   -  4
mph
1023.8mb 70f 70f
4:00pm  -   -   -  4
mph
1023.9mb 70f 69f
3:50pm 1.6ft 4s 4s 2 4 mph 1024mb 71f 69f
3:40pm  -   -   -  2 4 mph 1024.2mb 69f 69f
3:30pm  -   -   -  2
mph
1024.3mb 69f 69f
3:20pm  -   -   -  2
mph
1024.3mb 69f 69f
3:10pm  -   -   -  2 4 mph 1024.5mb 69f 69f
3:00pm  -   -   -  2 4 mph 1024.7mb 69f 69f
2:50pm 1.3ft 7s 4s 2
mph
1024.7mb 69f 69f
2:40pm  -   -   -  2 4 mph 1024.8mb 70f 69f
2:30pm  -   -   -  2 4 mph 1025mb 69f 69f
2:20pm  -   -   -  4
mph
1025.3mb 69f 69f
2:10pm  -   -   -  4 7 mph 1025.5mb 69f 69f
2:00pm  -   -   -  4 7 mph 1025.5mb - 69f
1:50pm 1.3ft 8s 4s 4
mph
1025.8mb 69f 69f
1:40pm 1.3ft  -  4s 4 7 mph 1025.8mb 69f 69f
1:30pm  -   -   -  4
mph
1026mb 69f 69f
1:20pm  -   -   -  4 7 mph 1026mb 69f 69f
1:10pm  -   -   -  4 7 mph 1026.3mb 69f 69f
1:00pm  -   -   -  4 7 mph 1026.5mb 69f 69f
12:50pm 1.3ft 7s 4s 4 7 mph 1026.5mb 69f 69f
12:40pm 1.3ft  -  4s 4 7 mph 1026.7mb 69f 69f
12:30pm  -   -   -  7
mph
1026.8mb 69f 69f
12:20pm  -   -   -  7
mph
1026.8mb 69f 69f
12:10pm  -   -   -  7
mph
1027mb 69f 69f
12:00pm  -   -   -  7 9 mph 1027mb 69f 69f
11:50am 1.3ft 8s 4s 7 9 mph 1027mb 69f 69f
11:40am  -   -   -  7 9 mph 1027mb 69f 69f
11:30am  -   -   -  7 9 mph 1027mb 69f 69f
11:20am  -   -   -  7 9 mph 1027mb 69f 69f
11:10am  -   -   -  9
mph
1027mb 69f 69f
11:00am  -   -   -  9
mph
1027mb 69f 69f
10:50am 1.3ft 8s 4s 9 11 mph 1027mb 69f 69f
10:40am  -   -   -  9
mph
1026.8mb 68f 69f
10:30am  -   -   -  9 11 mph 1026.8mb 68f 69f
10:20am  -   -   -  9
mph
1026.8mb 68f 69f
10:10am  -   -   -  7 9 mph 1026.7mb 68f 69f
10:00am  -   -   -  7 9 mph 1026.5mb 68f 69f
9:50am 1.6ft 8s 4s 7 9 mph 1026.5mb 68f 69f
9:40am 1.6ft  -  4s 7 9 mph 1026.3mb 68f 69f
9:30am  -   -   -  9
mph
1026.3mb 68f 69f
9:20am  -   -   -  9 11 mph 1026.3mb 68f 69f
9:10am  -   -   -  9
mph
1026mb 68f 68f
9:00am  -   -   -  9
mph
1026mb 68f 68f
8:50am 1.6ft 4s 4s 9 11 mph 1026mb 69f 68f
8:40am 1.6ft  -  4s 9
mph
1025.8mb 69f 68f
8:30am  -   -   -  9 11 mph 1025.8mb 70f 68f
8:20am  -   -   -  9 11 mph 1025.8mb 70f 68f
8:10am  -   -   -  9 11 mph 1025.5mb 70f 68f
8:00am  -   -   -  11 13 mph 1025.6mb - 68f
7:50am 2ft 4s 4s 11 13 mph 1025.3mb 69f 68f
7:40am  -   -   -  11 13 mph 1025.3mb 69f 68f
7:30am  -   -   -  11 13 mph 1025.2mb 69f 68f
7:20am  -   -   -  11 13 mph 1025mb 69f 69f
7:10am  -   -   -  11 16 mph 1025mb 69f 69f
7:00am  -   -   -  11 16 mph 1025mb 69f 69f
6:50am 2.5ft 4s 4s 13 16 mph 1024.8mb 69f 69f
6:40am  -   -   -  13 16 mph 1024.7mb 69f 69f
6:30am  -   -   -  13 16 mph 1024.5mb 70f 69f
6:20am  -   -   -  13 16 mph 1024.5mb 69f 69f
6:10am  -   -   -  13 16 mph 1024.3mb 69f 68f
6:00am  -   -   -  13 18 mph 1024.3mb 69f 68f
5:50am 2.5ft 4s 4s 13 16 mph 1024mb 69f 68f
5:40am 2.5ft  -  4s 13 16 mph 1024mb 69f 68f